This is the latest recevied weather packets stored in our database for station/object KM4KBD. If no packets are shown the sender has not sent any weather packets the latest 10 day(s).
| Time | Temp. | Humidity | Pressure | Rain* | Wind** | Luminosity | Snow |
|---|---|---|---|---|---|---|---|
| 1777503913 | 18.33° C | 68% | 1017.9 hPa | 0 mm | - | 93 W/m² | - |
| 1777503609 | 18.33° C | 70% | 1017.7 hPa | 0 mm | - | 109 W/m² | - |
| 1777503307 | 18.33° C | 70% | 1017.9 hPa | 0 mm | - | 146 W/m² | - |
| 1777503003 | 17.78° C | 70% | 1017.9 hPa | 0 mm | - | 79 W/m² | - |
| 1777502700 | 17.78° C | 70% | 1018 hPa | 0 mm | - | 99 W/m² | - |
| 1777502397 | 17.78° C | 72% | 1018 hPa | 0 mm | - | 79 W/m² | - |
| 1777502094 | 17.78° C | 72% | 1018.1 hPa | 0 mm | - | 77 W/m² | - |
| 1777501791 | 17.78° C | 72% | 1017.9 hPa | 0 mm | - | 71 W/m² | - |
| 1777501488 | 17.78° C | 71% | 1018 hPa | 0 mm | - | 79 W/m² | - |
| 1777501185 | 18.33° C | 71% | 1018 hPa | 0 mm | - | 123 W/m² | - |
| 1777500883 | 18.33° C | 72% | 1017.9 hPa | 0 mm | - | 130 W/m² | - |
| 1777500580 | 18.89° C | 71% | 1017.9 hPa | 0 mm | - | 265 W/m² | - |
| 1777500277 | 18.89° C | 72% | 1017.8 hPa | 0 mm | - | 270 W/m² | - |
| 1777499973 | 18.33° C | 73% | 1017.9 hPa | 0 mm | - | 94 W/m² | - |
| 1777499670 | 17.78° C | 75% | 1017.8 hPa | 0 mm | - | 335 W/m² | - |
| 1777499367 | 17.78° C | 74% | 1018 hPa | 0 mm | - | 151 W/m² | - |
| 1777499065 | 17.78° C | 73% | 1017.8 hPa | 0 mm | - | 155 W/m² | - |
| 1777498761 | 17.78° C | 73% | 1017.9 hPa | 0 mm | - | 112 W/m² | - |
| 1777498458 | 17.78° C | 74% | 1018 hPa | 0 mm | - | 165 W/m² | - |
| 1777498154 | 17.78° C | 73% | 1017.8 hPa | 0 mm | - | 260 W/m² | - |
| 1777497852 | 17.78° C | 73% | 1017.8 hPa | 0 mm | - | 173 W/m² | - |
| 1777497548 | 17.78° C | 73% | 1017.6 hPa | 0 mm | - | 222 W/m² | - |
| 1777497244 | 17.78° C | 73% | 1017.6 hPa | 0 mm | - | 156 W/m² | - |
| 1777496941 | 17.78° C | 75% | 1017.4 hPa | 0 mm | - | 197 W/m² | - |
| 1777496638 | 17.78° C | 75% | 1017.4 hPa | 0 mm | - | 184 W/m² | - |
* Rain latest hour (hover to see other rain measurements)
** Current wind speed in m/s (hover to see current wind gust speed)